Highgate, VT

6:51 PM EDT on June 27, 2017 (GMT -0400)
Franklin County State

Weather History for KFSO - June, 2013

Change the Weather History Date:

Sunday, June 2, 2013

  Actual Average (KPBG) Record (KPBG)
Temperature  
Mean Temperature 78 °F -  
Max Temperature 87 °F 73 °F 87 °F (1970)
Min Temperature 69 °F 51 °F 39 °F (1966)
Cooling Degree Days 12    
Growing Degree Days 28 (Base 50)    
Moisture  
Dew Point 65 °F    
Average Humidity 73    
Maximum Humidity 91    
Minimum Humidity 50    
Precipitation  
Precipitation 0.00 in - - ()
Sea Level Pressure  
Sea Level Pressure 29.69 in    
Wind  
Wind Speed 6 mph (South)    
Max Wind Speed 9 mph    
Max Gust Speed 20 mph    
Visibility 10 miles    
Events Rain    
Averages and records for this station are not official NWS values.
T = Trace of Precipitation, MM = Missing Value Source: NWS Daily Summary

Daily Weather History Graph

Daily Weather History Graph

Search for Another Location

Airport or City:

Trip Planner

Search our weather history database for the weather conditions in past years. The results will help you decide how hot, cold, wet, or windy it might be!

Date:

Astronomy

Jun. 02, 2013 Rise Set
Actual Time 5:08 AM EDT 8:32 PM EDT
Civil Twilight 4:32 AM EDT 9:09 PM EDT
Nautical Twilight 3:44 AM EDT 9:57 PM EDT
Astronomical Twilight 2:44 AM EDT 10:57 PM EDT
Moon 1:48 AM EDT (6/2) 2:47 PM EDT (6/2)
Length of Visible Light 16h 37m
Length of Day
15h 24m
Waning Crescent, 31% of the Moon is Illuminated
Jun 2
Waning Crescent
Jun 8
New
Jun 16
First Quarter
Jun 23
Full
Jun 30
Last Quarter

Hourly Weather History & Observations

Time (EDT) Temp. Heat Index Dew Point Humidity Pressure Visibility Wind Dir Wind Speed Gust Speed Precip Events Conditions
12:15 AM 69.4 °F - 65.5 °F 87% 29.79 in 10.0 mi South 6.9 mph - N/A Rain Light Rain
12:35 AM 69.4 °F - 65.5 °F 87% 29.79 in 10.0 mi South 6.9 mph - N/A Rain Light Rain
12:55 AM 69.4 °F - 65.5 °F 87% 29.79 in 10.0 mi South 5.8 mph - N/A Rain Light Rain
1:15 AM 69.4 °F - 65.7 °F 88% 29.79 in 10.0 mi South 5.8 mph - N/A Rain Light Rain
1:35 AM 69.4 °F - 65.5 °F 87% 29.79 in 10.0 mi South 8.1 mph - N/A Rain Light Rain
1:55 AM 69.4 °F - 65.3 °F 87% 29.78 in 10.0 mi South 8.1 mph - N/A Rain Light Rain
2:15 AM 69.4 °F - 65.3 °F 87% 29.78 in 10.0 mi South 5.8 mph - N/A Rain Light Rain
2:35 AM 69.4 °F - 65.5 °F 87% 29.78 in 7.0 mi South 8.1 mph - N/A Rain Rain
2:55 AM 69.4 °F - 65.7 °F 88% 29.77 in 5.0 mi South 5.8 mph - N/A Rain Heavy Rain
3:15 AM 69.4 °F - 65.8 °F 88% 29.76 in 10.0 mi South 5.8 mph - N/A Rain Light Rain
3:35 AM 69.4 °F - 65.8 °F 88% 29.76 in 10.0 mi South 5.8 mph - N/A Rain Rain
3:55 AM 69.4 °F - 65.8 °F 88% 29.76 in 7.0 mi South 4.6 mph - N/A Rain Rain
4:15 AM 69.4 °F - 65.8 °F 88% 29.76 in 10.0 mi South 4.6 mph - N/A   Overcast
4:35 AM 69.4 °F - 66.2 °F 89% 29.77 in 5.0 mi South 5.8 mph - N/A Rain Rain
4:55 AM 69.4 °F - 66.2 °F 89% 29.76 in 5.0 mi Calm Calm - N/A Rain Heavy Rain
5:15 AM 69.4 °F - 66.4 °F 90% 29.74 in 10.0 mi SSE 4.6 mph - N/A   Overcast
5:35 AM 69.4 °F - 66.4 °F 90% 29.74 in 10.0 mi Calm Calm - N/A   Overcast
5:55 AM 69.4 °F - 66.4 °F 90% 29.74 in 7.0 mi Calm Calm - N/A   Mostly Cloudy
6:15 AM 69.4 °F - 66.6 °F 91% 29.74 in 10.0 mi ESE 3.5 mph - N/A   Overcast
6:35 AM 69.4 °F - 66.4 °F 90% 29.74 in 7.0 mi Calm Calm - N/A   Overcast
6:55 AM 69.4 °F - 66.6 °F 91% 29.74 in 7.0 mi Calm Calm - N/A   Overcast
7:15 AM 69.4 °F - 66.6 °F 91% 29.73 in 10.0 mi Calm Calm - N/A   Mostly Cloudy
7:35 AM 70.7 °F - 67.5 °F 89% 29.72 in 10.0 mi SE 3.5 mph - N/A   Scattered Clouds
7:55 AM 72.0 °F - 68.2 °F 88% 29.71 in 10.0 mi SE 5.8 mph - N/A   Clear
8:15 AM 74.5 °F - 70.7 °F 88% 29.70 in 10.0 mi SE 5.8 mph - N/A   Clear
8:35 AM 74.5 °F - 69.8 °F 85% 29.69 in 10.0 mi SSE 4.6 mph - N/A   Clear
8:55 AM 76.6 °F - 70.5 °F 81% 29.68 in 10.0 mi South 6.9 mph - N/A   Clear
9:15 AM 77.0 °F - 70.0 °F 79% 29.67 in 10.0 mi South 4.6 mph - N/A   Scattered Clouds
9:35 AM 77.0 °F - 69.3 °F 77% 29.68 in 10.0 mi WSW 4.6 mph - N/A   Scattered Clouds
9:55 AM 74.7 °F - 67.8 °F 79% 29.66 in 10.0 mi SSE 8.1 mph - N/A   Scattered Clouds
10:15 AM 74.5 °F - 68.2 °F 81% 29.66 in 10.0 mi South 4.6 mph - N/A   Mostly Cloudy
10:35 AM 77.0 °F - 68.4 °F 75% 29.67 in 10.0 mi South 8.1 mph 19.6 mph N/A   Mostly Cloudy
10:55 AM 79.7 °F - 68.0 °F 67% 29.66 in 10.0 mi South 8.1 mph 17.3 mph N/A   Mostly Cloudy
11:15 AM 81.3 °F 84.3 °F 68.4 °F 65% 29.65 in 10.0 mi SSW 9.2 mph 19.6 mph N/A   Scattered Clouds
11:35 AM 82.6 °F 85.9 °F 68.9 °F 63% 29.65 in 10.0 mi SSW 5.8 mph - N/A   Clear
11:55 AM 82.6 °F 85.7 °F 68.2 °F 62% 29.65 in 10.0 mi South 6.9 mph - N/A   Clear
12:15 PM 83.3 °F 86.9 °F 69.1 °F 62% 29.65 in 10.0 mi SSW 8.1 mph 16.1 mph N/A   Clear
12:35 PM 82.4 °F 84.6 °F 66.2 °F 58% 29.65 in 10.0 mi South 8.1 mph 17.3 mph N/A   Clear
12:55 PM 84.2 °F 86.3 °F 66.0 °F 54% 29.65 in 10.0 mi SW 9.2 mph 19.6 mph N/A   Clear
1:15 PM 83.8 °F 85.3 °F 64.8 °F 52% 29.65 in 10.0 mi SSW 6.9 mph 17.3 mph N/A   Clear
1:35 PM 85.5 °F 87.4 °F 65.7 °F 51% 29.64 in 10.0 mi SSW 8.1 mph - N/A   Clear
1:55 PM 86.9 °F 89.9 °F 67.3 °F 52% 29.63 in 10.0 mi SW 9.2 mph - N/A   Scattered Clouds
2:15 PM 82.0 °F 83.0 °F 62.4 °F 51% 29.64 in 10.0 mi SSW 8.1 mph 17.3 mph N/A   Mostly Cloudy
2:35 PM 81.7 °F 82.4 °F 61.3 °F 50% 29.64 in 10.0 mi West 6.9 mph - N/A   Overcast
2:55 PM 82.8 °F 83.6 °F 62.6 °F 50% 29.62 in 10.0 mi SW 4.6 mph - N/A   Mostly Cloudy
3:15 PM 79.7 °F - 60.4 °F 52% 29.64 in 10.0 mi SW 3.5 mph - N/A   Scattered Clouds
3:35 PM 79.3 °F - 63.7 °F 59% 29.65 in 10.0 mi South 4.6 mph - N/A Rain Light Rain
3:55 PM 79.5 °F - 63.7 °F 58% 29.64 in 10.0 mi South 9.2 mph - N/A   Scattered Clouds
4:15 PM 77.0 °F - 62.6 °F 61% 29.63 in 10.0 mi South 3.5 mph - N/A   Mostly Cloudy
4:35 PM 77.0 °F - 65.5 °F 67% 29.63 in 10.0 mi South 5.8 mph - N/A   Mostly Cloudy
4:55 PM 78.8 °F - 66.2 °F 65% 29.63 in 10.0 mi South 8.1 mph - N/A   Mostly Cloudy
5:15 PM 79.7 °F - 64.6 °F 60% 29.63 in 10.0 mi SSW 5.8 mph - N/A   Scattered Clouds
5:35 PM 77.2 °F - 63.9 °F 63% 29.64 in 10.0 mi SSW 8.1 mph - N/A   Clear
5:55 PM 77.0 °F - 64.6 °F 65% 29.64 in 10.0 mi South 5.8 mph - N/A   Scattered Clouds
6:15 PM 79.2 °F - 66.0 °F 64% 29.64 in 10.0 mi South 8.1 mph - N/A   Clear
6:35 PM 77.5 °F - 64.9 °F 65% 29.64 in 10.0 mi South 4.6 mph - N/A   Clear
6:55 PM 74.5 °F - 64.6 °F 71% 29.65 in 10.0 mi SSW 8.1 mph - N/A   Mostly Cloudy
7:15 PM 74.5 °F - 66.0 °F 75% 29.65 in 10.0 mi South 9.2 mph 19.6 mph N/A   Overcast
7:35 PM 74.5 °F - 64.0 °F 70% 29.65 in 10.0 mi South 9.2 mph - N/A   Scattered Clouds
7:55 PM 74.5 °F - 59.9 °F 60% 29.66 in 10.0 mi South 6.9 mph - N/A   Clear
8:15 PM 71.6 °F - 58.5 °F 63% 29.66 in 10.0 mi SSW 5.8 mph - N/A   Clear
8:35 PM 71.8 °F - 58.6 °F 63% 29.67 in 10.0 mi SSW 9.2 mph - N/A   Clear
8:55 PM 72.0 °F - 58.6 °F 63% 29.68 in 10.0 mi SSW 9.2 mph - N/A   Clear
9:15 PM 71.1 °F - 58.1 °F 63% 29.69 in 10.0 mi South 4.6 mph - N/A   Clear
9:35 PM 69.8 °F - 57.9 °F 66% 29.70 in 10.0 mi South 8.1 mph - N/A   Clear
9:55 PM 69.4 °F - 57.6 °F 66% 29.70 in 10.0 mi South 6.9 mph - N/A   Clear
10:15 PM 70.7 °F - 57.4 °F 63% 29.71 in 10.0 mi South 8.1 mph - N/A   Clear
10:35 PM 69.8 °F - 56.5 °F 63% 29.71 in 10.0 mi South 6.9 mph - N/A   Clear
10:55 PM 69.4 °F - 56.8 °F 64% 29.71 in 10.0 mi SSW 6.9 mph - N/A   Clear
11:15 PM 69.4 °F - 56.8 °F 64% 29.71 in 10.0 mi South 8.1 mph - N/A   Clear
11:35 PM 69.4 °F - 55.8 °F 62% 29.72 in 10.0 mi SSW 5.8 mph - N/A   Clear
11:55 PM 69.4 °F - 55.6 °F 61% 29.72 in 10.0 mi SSW 6.9 mph - N/A   Clear